Location: ??????
(36.0418°N, 43.6351°E)
Time: 05:34:02
(UTC+00:00)

Cosmos 883 Rocket - Pass Details

Date: 18 June 2021
Orbit: 950 x 996 km, 83.0° (Epoch: 27 July)

Event Time Altitude Azimuth Distance (km) Brightness Sun altitude
Rises 22:56:16 0° 14° (NNE) 3,637 8.8 -25.2°
Reaches altitude 10° 23:00:14 10° 39° (NE) 2,681 7.8 -24.8°
Maximum altitude 23:03:16 14° 69° (ENE) 2,397 7.1 -24.5°
Drops below altitude 10° 23:06:17 10° 100° (E) 2,671 7.0 -24.2°
Sets 23:10:11 0° 124° (SE) 3,612 7.5 -23.8°
